Home > Weather > Pretoria > Past weeks

Flag for South Africa Past Weather in Pretoria, South Africa — Yesterday and Last 2 Weeks

Now
50 °F

Light rain. Low clouds.


Feels Like: 44 °F
Forecast: 36 / 54 °F
Wind: 17 mph from Northeast

Location: Waterkloof Lmb

Current Time: Jul 26, 2016 at 8:44:06 AM

Latest Report: Jul 26, 2016 at 8:00 AM


Visibility: 2 mi

Pressure: 30.21 "Hg (25.71 "Hg at 1338m altitude)

Humidity: 94%

Dew Point: 48 °F

Location of PretoriaLocation

Past Weather in Pretoria — Graph

°F

Pretoria Temperature Yesterday

Maximum temperature yesterday: 61 °F (at 1:00 PM)
Minimum temperature yesterday: 48 °F (at 4:00 AM)
Average temperature yesterday: 54 °F

High & Low Weather Summary for the Past Weeks

 TemperatureHumidityPressure
High73 °F (Jul 21, 1:00 PM)94% (Jul 26, 5:00 AM)30.66 "Hg (Jul 26, 5:00 AM)
Low36 °F (Jul 12, 5:00 AM)10% (Jul 23, 1:00 PM)30.09 "Hg (Jul 23, 3:00 PM)
Average53 °F48%30.33 "Hg
* Reported Jul 11 8:00 AM — Jul 26 7:00 AM, Pretoria, Weather by CustomWeather, © 2016

Note: Actual official high and low records may vary slightly from our data, if they occured in-between our weather recording intervals... More about our weather records

Advertising

Pretoria Weather History for the Previous 24 Hours

Scroll right to see more
 ConditionsComfort  
Time TempWeatherWind HumidityBarometerVisibility
7:00 AM
Tue, Jul 26
50 °FCool.14 mph94%30.15 "HgN/A
6:00 AM52 °FCool.10 mph88%30.12 "HgN/A
5:00 AM50 °FCool.14 mph94%30.12 "HgN/A
3:00 AM52 °FCool.10 mph82%30.12 "HgN/A
2:00 AM52 °FCool.17 mph82%30.09 "HgN/A
1:00 AM52 °FCool.16 mph82%30.12 "HgN/A
12:00 AM54 °FCool.15 mph72%30.09 "HgN/A
11:00 PM
Mon, Jul 25
54 °FCool.18 mph72%30.09 "HgN/A
10:00 PM55 °FCool.18 mph67%30.09 "HgN/A
9:00 PM54 °FCool.20 mph72%30.12 "HgN/A
8:00 PM55 °FCool.16 mph67%30.12 "HgN/A
7:00 PM57 °FCool.21 mph63%30.09 "HgN/A
6:00 PM59 °FRefreshingly cool.21 mph55%30.09 "HgN/A
5:00 PM59 °FRefreshingly cool.16 mph55%30.09 "HgN/A
4:00 PM61 °FRefreshingly cool.18 mph52%30.09 "HgN/A
3:00 PM61 °FRefreshingly cool.18 mph52%30.09 "HgN/A
2:00 PM59 °FPartly sunny.17 mphN/A30.18 "Hg6 mi
1:00 PM61 °FRefreshingly cool.25 mph52%30.15 "HgN/A
12:00 PM59 °FRefreshingly cool.17 mph59%30.18 "HgN/A
11:00 AM55 °FCool.17 mph67%30.21 "HgN/A
10:00 AM54 °FCool.21 mph72%30.24 "HgN/A
9:00 AM52 °FPartly sunny.15 mph82%30.24 "Hg6 mi
8:00 AM50 °FPartly sunny.12 mphN/A30.30 "Hg6 mi
Weather by CustomWeather, © 2016

See weather overviewHow to use our weather pages